Home > Weather > Nottingham > Past weeks

Flag for United Kingdom Weather for the Past 2 Weeks in Nottingham, England, United Kingdom

Now
46 °F

Scattered clouds.


Feels Like: 41 °F
Forecast: N/A
Wind: 10 mph from Southwest

Location: East Midlands

Current Time: Feb 11, 2016 at 4:11:31 PM

Latest Report: Feb 11, 2016 at 3:20 PM


Visibility: N/A

Pressure: 29.59 "Hg

Humidity: 53%

Dew point: 30 °F

Location of NottinghamLocation

Historic Weather in Nottingham — Graph

°F

Nottingham Temperature Yesterday

Maximum temperature yesterday: 46 °F (at 12:50 PM)
Minimum temperature yesterday: 36 °F (at 7:20 PM)
Average temperature yesterday: 40 °F

High & Low Weather Summary for the Past Weeks

 TemperatureHumidityPressure
High57 °F (Feb 1, 12:50 PM)100% (Jan 31, 9:20 AM)30.30 "Hg (Jan 31, 9:20 AM)
Low32 °F (Feb 11, 1:50 AM)51% (Feb 1, 3:20 PM)28.80 "Hg (Feb 8, 8:20 AM)
Average44 °F80%29.64 "Hg
* Reported Jan 27 2:20 PM — Feb 11 2:50 PM, Nottingham, Weather by CustomWeather, © 2016

Note: Actual official high and low records may vary slightly from our data, if they occured in-between our weather recording intervals... More about our weather records

Advertising

Nottingham Weather History for the Previous 24 Hours

 ConditionsComfort  
Time TempWeatherWind HumidityBarometerVisibility
2:50 PM
Thu, Feb 11
45 °FScattered clouds.7 mph66%29.59 "HgN/A
2:20 PM45 °FScattered clouds.10 mph61%29.59 "HgN/A
1:50 PM45 °FSunny.8 mph66%29.59 "Hg10 mi
1:20 PM45 °FSunny.8 mph66%29.59 "Hg10 mi
12:20 PM43 °FSunny.8 mph76%29.62 "Hg10 mi
11:50 AM43 °FPassing clouds.7 mph71%29.62 "HgN/A
11:20 AM41 °FSunny.3 mph76%29.62 "Hg10 mi
10:50 AM41 °FSunny.2 mph81%29.65 "Hg10 mi
10:20 AM41 °FSunny.3 mph81%29.65 "Hg10 mi
9:50 AM39 °FSunny.8 mph81%29.62 "Hg10 mi
9:20 AM36 °FSunny.9 mph93%29.62 "Hg10 mi
8:50 AM34 °FSunny.8 mph93%29.62 "Hg10 mi
8:20 AM34 °FSunny.8 mph93%29.62 "Hg10 mi
7:50 AM34 °FSunny.2 mph87%29.62 "Hg10 mi
7:20 AM34 °FClear.8 mph93%29.62 "Hg10 mi
6:50 AM36 °FClear.9 mph87%29.62 "Hg10 mi
6:20 AM36 °FPassing clouds.9 mph87%29.62 "HgN/A
5:50 AM36 °FPassing clouds.9 mph87%29.62 "HgN/A
5:20 AM36 °FPassing clouds.8 mph87%29.62 "HgN/A
4:50 AM36 °FPassing clouds.8 mph87%29.62 "HgN/A
4:20 AM36 °FPassing clouds.9 mph87%29.62 "HgN/A
3:50 AM36 °FPassing clouds.10 mph87%29.62 "HgN/A
3:20 AM36 °FPassing clouds.9 mph87%29.62 "HgN/A
2:20 AM36 °FPassing clouds.10 mph87%29.62 "HgN/A
1:50 AM32 °FPassing clouds.9 mph93%29.62 "HgN/A
1:20 AM34 °FPassing clouds.9 mph87%29.62 "HgN/A
12:50 AM34 °FClear.12 mph87%29.62 "Hg10 mi
12:20 AM36 °FClear.14 mph87%29.59 "Hg10 mi
11:50 PM
Wed, Feb 10
36 °FClear.13 mph87%29.59 "Hg10 mi
11:20 PM36 °FClear.12 mph87%29.59 "Hg10 mi
10:50 PM36 °FPassing clouds.12 mph87%29.59 "HgN/A
9:50 PM36 °FClear.10 mph87%29.59 "Hg10 mi
9:20 PM36 °FClear.10 mph87%29.56 "Hg10 mi
8:50 PM37 °FClear.10 mph81%29.56 "Hg10 mi
8:20 PM36 °FClear.12 mph87%29.56 "Hg10 mi
7:50 PM36 °FClear.9 mph87%29.56 "Hg10 mi
7:20 PM36 °FClear.9 mph87%29.56 "Hg10 mi
6:50 PM37 °FClear.10 mph81%29.53 "Hg10 mi
6:20 PM37 °FClear.13 mph81%29.53 "Hg10 mi
5:50 PM37 °FClear.12 mph81%29.53 "Hg10 mi
5:20 PM39 °FClear.8 mph70%29.50 "Hg10 mi
4:50 PM41 °FSunny.12 mph66%29.50 "Hg10 mi
4:20 PM43 °FPassing clouds.14 mph61%29.50 "HgN/A
Weather by CustomWeather, © 2016

See weather overviewHow to use our weather pages